Погода в Некрасовском

Россия / Ярославская область     57°40′39″N   40°22′00″E
темп.,
°C
ветер,
м/с
пор.,
м/с
влажн.,
%
обл.,
%
осадки,
мм/ч
давл.,
гПа
погр.,
м
23 октября, сб
сб2300:00+5зюз8157316 0.0 997949
03:00+5зюз815695 0.0 998822
06:00+4юз8147762 0.0 998792
09:00+5юз7127892 0.0 9991108
12:00+7юз8117280 0.0 10011040
15:00+6юз71083100 0.1 10021004
18:00+5зюз4893100 3.3 1003849
21:00+5зюз4887100 4.9 1004553
24 октября, вс
вс2400:00+4зюз499199 0.1 1005387
03:00+2зюз4893100 0.1 1006264
06:00+3зюз5891100 0.0 1006669
09:00+3з5896100 0.1 1007502
12:00+3зсз5896100 0.4 1009519
15:00+1сз61193100 0.8 1011774
18:00+1ссз8137984 0.2 10151101
21:00−1ссз613795 0.2 1018612
25 октября, пн
пн2500:00−1ссз511845 0.0 1021486
03:00−1ссз410865 0.0 1023362
06:00−2сз37895 0.0 1025206
09:00−1зсз358180 0.0 1026229
12:00+2зюз4666100 0.0 1026734
15:00+2юз5961100 0.0 1024774
18:000юз71384100 0.3 1023701
21:00+1юз81591100 1.1 1020635
26 октября, вт
вт2600:00+2зюз71380100 0.0 1019554
03:00+2зюз61385100 0.0 1018537
06:000зюз6139382 0.0 1018399
09:00+1зюз61389100 0.0 1017466
12:00+4зюз6127799 0.0 1016572
15:00+4зюз6117536 0.0 1015590
18:00+2зюз51285100 0.0 1016349
21:00+2юз51288100 0.0 1015348
27 октября, ср
ср2700:00+1юз51190100 0.0 1015313
03:00+2юз51187100 0.0 1014356
06:00+2юз51187100 0.0 1012341
09:00+2юз61285100 0.0 1011448
12:00+3юз61188100 1.1 1010527
15:00+3зюз51192100 1.6 1010496
18:00+3зюз5119487 0.1 1010419
21:00+5зюз61390100 0.1 1010567